Weather observations for the past three days for
Saint John, N. B.
| Date | Time (adt) | Wind (mph) | Vis. (mi.) | Weather | Sky Cond. | Temperature (ºF) | Relative Humidity | Wind Chill (°F) | Heat Index (°F) | Pressure | Precipitation (in) | ||||||
|---|---|---|---|---|---|---|---|---|---|---|---|---|---|---|---|---|---|
| Air | Dwpt | 6 hour | altimeter (in) | sea level (mb) | 1 hr | 3 hr | 6 hr | ||||||||||
| Max. | Min. | ||||||||||||||||
| 31 | 03:00 | NW 8 | 15.00 | A Few Clouds | FEW080 FEW230 | 59 | 59 | 100% | 29.9 | 1012.8 | |||||||
| 31 | 02:00 | NW 5 | 3.00 | Fog/Mist | OVC068 | 59 | 59 | 100% | 29.91 | 1012.9 | |||||||
| 31 | 01:00 | W 5 | 2.00 | Light Showers Rain Fog/Mist | FEW004 OVC056 | 59 | 59 | 100% | 29.9 | 1012.8 | |||||||
| 31 | 00:00 | NW 6 | 6.00 | Light Showers Rain Fog/Mist | OVC085 | 59 | 59 | 100% | 29.91 | 1013.1 | |||||||
| 30 | 23:00 | NW 6 | 4.00 | Thunderstorm Rain Fog/Mist | FEW012 SCT026CB OVC083 | 60.8 | 60.8 | 100% | 29.92 | 1013.4 | |||||||
| 30 | 22:00 | S 10 | 15.00 | Light Showers Rain | FEW040CB OVC098 | 59 | 59 | 100% | 29.88 | 1012.3 | |||||||
| 30 | 21:00 | S 7 | 15.00 | Overcast | SCT064TCU OVC120 | 60.8 | 60.8 | 100% | 29.87 | 1011.8 | |||||||
| 30 | 20:00 | S 6 | 15.00 | Mostly Cloudy | FEW064TCU BKN150 | 60.8 | 57.2 | 88% | 29.88 | 1012.2 | |||||||
| 30 | 19:00 | SW 6 | 15.00 | Overcast | FEW050TCU BKN120 OVC230 | 64.4 | 57.2 | 78% | 29.88 | 1012.2 | |||||||
| 30 | 18:00 | S 12 | 15.00 | Mostly Cloudy | FEW050TCU SCT090 BKN230 | 66.2 | 57.2 | 73% | 29.88 | 1012.3 | |||||||
| 30 | 16:00 | SW 13 | 15.00 | Mostly Cloudy | SCT045TCU BKN080 BKN250 | 71.6 | 59 | 65% | 29.91 | 1013.2 | |||||||
| 30 | 14:00 | S 15 | 15.00 | Mostly Cloudy | SCT036 BKN250 | 73.4 | 57.2 | 57% | 29.94 | 1014.0 | |||||||
| 30 | 13:00 | SW 12 G 21 | 15.00 | Mostly Cloudy | FEW036 BKN250 | 73.4 | 57.2 | 57% | 29.96 | 1014.8 | |||||||
| 30 | 12:00 | SW 16 | 15.00 | Partly Cloudy | FEW005 FEW080 SCT250 | 69.8 | 55.4 | 60% | 29.98 | 1015.5 | |||||||
| 30 | 11:00 | SW 10 G 17 | 15.00 | Partly Cloudy | FEW002 FEW075 SCT089 | 68 | 55.4 | 64% | 29.99 | 1015.9 | |||||||
| 30 | 10:00 | S 13 | 15.00 | Mostly Cloudy | FEW002 SCT070 BKN085 | 64.4 | 57.2 | 78% | 30.01 | 1016.5 | |||||||
| 30 | 09:00 | SW 7 | 15.00 | Mostly Cloudy | BKN070 BKN250 | 60.8 | 55.4 | 83% | 30.03 | 1017.4 | |||||||
| 30 | 08:00 | S 3 | 15.00 | A Few Clouds | FEW005 FEW080 FEW250 | 55.4 | 55.4 | 100% | 30.04 | 1017.7 | |||||||
| 30 | 07:00 | S 3 | 15.00 | Shallow Fog | SCT080 | 50 | 50 | 100% | 30.05 | 1017.8 | |||||||
| 30 | 06:00 | Calm | 15.00 | Shallow Fog | FEW080 FEW220 | 44.6 | 44.6 | 100% | 30.05 | 1018.0 | |||||||
| 30 | 05:00 | Calm | 5.00 | Fog/Mist | SCT220 | 44.6 | 44.6 | 100% | 30.06 | 1018.1 | |||||||
| 30 | 02:00 | Calm | 15.00 | Partly Cloudy | SCT230 | 48.2 | 48.2 | 100% | 30.08 | 1019.1 | |||||||
| 30 | 00:00 | Calm | 15.00 | Clear | SKC | 50 | 50 | 100% | 30.09 | 1019.4 | |||||||
| 29 | 23:00 | S 5 | 15.00 | Clear | SKC | 53.6 | 53.6 | 100% | 30.09 | 1019.2 | |||||||
| 29 | 22:00 | S 6 | 15.00 | Clear | SKC | 55.4 | 50 | 82% | 30.09 | 1019.3 | |||||||
| 29 | 21:00 | S 5 | 15.00 | Clear | SKC | 57.2 | 51.8 | 82% | 30.08 | 1018.9 | |||||||
| 29 | 20:00 | S 7 | 15.00 | A Few Clouds | FEW060 | 60.8 | 51.8 | 72% | 30.06 | 1018.4 | |||||||
| 29 | 19:00 | SW 9 | 15.00 | A Few Clouds | FEW051 | 64.4 | 51.8 | 64% | 30.07 | 1018.6 | |||||||
| 29 | 18:00 | S 14 | 15.00 | Partly Cloudy | FEW050 SCT250 | 68 | 53.6 | 60% | 30.06 | 1018.3 | |||||||
| 29 | 17:00 | S 12 | 15.00 | A Few Clouds | FEW051 | 69.8 | 51.8 | 53% | 30.06 | 1018.2 | |||||||
| 29 | 16:00 | Vrbl 9 G 25 | 15.00 | A Few Clouds | FEW051 | 73.4 | 51.8 | 47% | 30.07 | 1018.4 | |||||||
| 29 | 15:00 | Vrbl 7 | 15.00 | A Few Clouds | FEW045 | 71.6 | 48.2 | 44% | 30.07 | 1018.5 | |||||||
| 29 | 14:00 | NW 10 G 18 | 15.00 | A Few Clouds | FEW046 FEW250 | 71.6 | 50 | 47% | 30.07 | 1018.6 | |||||||
| 29 | 13:00 | NW 12 G 18 | 15.00 | A Few Clouds | FEW250 | 69.8 | 48.2 | 46% | 30.08 | 1018.7 | |||||||
| 29 | 12:00 | N 9 | 15.00 | A Few Clouds | FEW250 | 68 | 50 | 53% | 30.08 | 1019.0 | |||||||
| 29 | 11:00 | N 14 G 23 | 15.00 | A Few Clouds | FEW250 | 64.4 | 50 | 60% | 30.08 | 1019.0 | |||||||
| 29 | 10:00 | NW 14 | 15.00 | A Few Clouds | FEW025 FEW250 | 62.6 | 50 | 64% | 30.07 | 1018.6 | |||||||
| 29 | 09:00 | N 12 | 15.00 | Partly Cloudy | FEW070 SCT250 | 59 | 51.8 | 77% | 30.06 | 1018.3 | |||||||
| 29 | 08:00 | N 14 G 21 | 15.00 | Partly Cloudy | SCT066 | 57.2 | 53.6 | 88% | 30.05 | 1017.7 | |||||||
| 29 | 07:00 | N 14 | 15.00 | Mostly Cloudy | FEW008 SCT057 BKN091 | 59 | 59 | 100% | 30.02 | 1016.9 | |||||||
| 29 | 05:00 | N 3 | 15.00 | Mostly Cloudy | SCT068 BKN250 | 60.8 | 60.8 | 100% | 29.99 | 1015.7 | |||||||
| 29 | 03:00 | NW 9 | 15.00 | Mostly Cloudy | FEW006 SCT015 BKN045 | 64.4 | 64.4 | 100% | 29.98 | 1015.3 | |||||||
| 29 | 02:00 | Vrbl 2 | 15.00 | Mostly Cloudy | FEW005 SCT058 BKN260 | 64.4 | 64.4 | 100% | 29.96 | 1014.7 | |||||||
| 29 | 01:00 | SW 6 | 3.00 | Light Showers Rain Fog/Mist | BKN004 OVC029 | 64.4 | 64.4 | 100% | 29.97 | 1015.0 | |||||||
| 29 | 00:00 | SW 14 G 21 | 1.50 | Thunderstorm Heavy Rain Fog/Mist | OVC006 | 66.2 | 66.2 | 100% | 29.95 | 1014.5 | |||||||
| 28 | 23:00 | S 7 | 6.00 | Light Showers Rain Fog/Mist | BKN006 OVC012 | 66.2 | 66.2 | 100% | 29.97 | 1014.9 | |||||||
| 28 | 22:00 | SW 9 | 6.00 | Light Showers Rain Fog/Mist | BKN005 OVC013 | 68 | 68 | 100% | 29.97 | 1015.2 | |||||||
| 28 | 21:00 | S 9 | 3.00 | Light Showers Rain Fog/Mist | OVC003 | 68 | 68 | 100% | 29.97 | 1015.0 | |||||||
| 28 | 20:00 | S 12 | 3.00 | Light Showers Rain Fog/Mist | OVC002 | 68 | 68 | 100% | 29.97 | 1015.2 | |||||||
| 28 | 19:00 | S 10 | 1.50 | Light Showers Rain Fog/Mist | OVC003 | 66.2 | 66.2 | 100% | 29.98 | 1015.5 | |||||||
| 28 | 18:00 | S 9 | 2.00 | Heavy Showers Rain Fog/Mist | BKN005 OVC020 | 66.2 | 66.2 | 100% | 29.99 | 1015.8 | |||||||
| 28 | 17:00 | SW 9 | 15.00 | Thunderstorm Light Rain | FEW008 BKN012 OVC051 | 68 | 68 | 100% | 29.99 | 1015.9 | |||||||
| 28 | 16:00 | SW 18 | 15.00 | Mostly Cloudy | BKN008 BKN030 | 73.4 | 68 | 83% | 30 | 1016.2 | |||||||
| 28 | 15:00 | S 17 | 15.00 | Showers in Vicinity | BKN008 OVC033 | 71.6 | 69.8 | 94% | 30.03 | 1017.1 | |||||||
| 28 | 14:00 | S 14 G 21 | 15.00 | Light Showers Rain | OVC005 | 69.8 | 69.8 | 100% | 30.04 | 1017.6 | |||||||
| 28 | 13:00 | S 14 G 20 | 15.00 | Overcast | FEW006 BKN010 OVC018 | 71.6 | 68 | 88% | 30.05 | 1017.8 | |||||||
| 28 | 12:00 | S 9 | 15.00 | Overcast | OVC007 | 68 | 68 | 100% | 30.06 | 1018.2 | |||||||
| 28 | 11:00 | S 9 | 15.00 | Overcast | OVC008 | 68 | 66.2 | 94% | 30.06 | 1018.3 | |||||||
| 28 | 10:00 | S 8 | 15.00 | Overcast | BKN018 OVC120 | 66.2 | 64.4 | 94% | 30.07 | 1018.6 | |||||||
| 28 | 09:00 | SE 7 | 15.00 | Mostly Cloudy | BKN021 BKN120 | 64.4 | 64.4 | 100% | 30.06 | 1018.3 | |||||||
| 28 | 08:00 | S 7 | 15.00 | Mostly Cloudy | FEW005 BKN024 BKN120 | 62.6 | 62.6 | 100% | 30.07 | 1018.5 | |||||||
| 28 | 07:00 | S 6 | 15.00 | Partly Cloudy | FEW005 FEW120 SCT260 | 60.8 | 60.8 | 100% | 30.06 | 1018.4 | |||||||
| 28 | 06:00 | S 3 | 10.00 | A Few Clouds | FEW003 FEW120 | 60.8 | 60.8 | 100% | 30.06 | 1018.0 | |||||||
| 28 | 05:00 | S 5 | 8.00 | A Few Clouds | FEW003 FEW250 | 60.8 | 60.8 | 100% | 30.06 | 1018.0 | |||||||
| Date | Time (adt) | Wind (mph) | Vis. (mi.) | Weather | Sky Cond. | Air | Dwpt | Max. | Min. | Relative Humidity | Wind Chill (°F) | Heat Index (°F) | altimeter (in) | sea level (mb) | 1 hr | 3 hr | 6 hr |
| 6 hour | |||||||||||||||||
| Temperature (ºF) | Pressure | Precipitation (in) | |||||||||||||||